Location: Powder Track
(41.8531°N, 72.3584°W)
Time: 23:06:42
(UTC+00:00)

Vanguard 2 Rocket - Pass Details

Date: 02 August 2021
Orbit: 555 x 3324 km, 32.9° (Epoch: 18 September)

Event Time Altitude Azimuth Distance (km) Brightness Sun altitude
Rises 13:23:51 0° 248° (WSW) 2,766 9.0 39.0°
Reaches altitude 10° 13:26:20 10° 234° (SW) 1,825 8.3 39.5°
Maximum altitude 13:29:36 25° 177° (S) 1,174 7.9 40.1°
Drops below altitude 10° 13:33:17 10° 121° (ESE) 2,073 9.8 40.7°
Sets 13:36:19 0° 108° (ESE) 3,247 10.6 41.3°
